Weather History for KHWY - March, 2013

Change the Weather History Date:

Friday, March 29, 2013

  Actual Average (KHEF) Record (KHEF)
Temperature  
Mean Temperature 44 °F -  
Max Temperature 57 °F 58 °F 86 °F (1998)
Min Temperature 32 °F 36 °F 21 °F (2015)
Degree Days  
Heating Degree Days 20    
Moisture  
Dew Point 35 °F    
Average Humidity 74    
Maximum Humidity 100    
Minimum Humidity 40    
Precipitation  
Precipitation 0.00 in - - ()
Sea Level Pressure  
Sea Level Pressure 30.21 in    
Wind  
Wind Speed 2 mph (NW)    
Max Wind Speed 12 mph    
Max Gust Speed 18 mph    
Visibility 10 miles    
Events      
Averages and records for this station are not official NWS values.
T = Trace of Precipitation, MM = Missing Value Source: NWS Daily Summary

Daily Weather History Graph

Daily Weather History Graph

Search for Another Location

Airport or City:

Trip Planner

Search our weather history database for the weather conditions in past years. The results will help you decide how hot, cold, wet, or windy it might be!

Date:

Astronomy

Mar. 29, 2013 Rise Set
Actual Time 6:59 AM EDT 7:31 PM EDT
Civil Twilight 6:33 AM EDT 7:58 PM EDT
Nautical Twilight 6:01 AM EDT 8:29 PM EDT
Astronomical Twilight 5:29 AM EDT 9:02 PM EDT
Moon 10:27 PM EDT (3/29) 8:09 AM EDT (3/29)
Length of Visible Light 13h 25m
Length of Day
12h 31m
Waning Gibbous, 93% of the Moon is Illuminated
Mar 29
Waning Gibbous
Apr 3
Last Quarter
Apr 10
New
Apr 18
First Quarter
Apr 25
Full

Hourly Weather History & Observations

Time (EDT) Temp. Windchill Dew Point Humidity Pressure Visibility Wind Dir Wind Speed Gust Speed Precip Events Conditions
12:15 AM 34.2 °F - 34.0 °F 99% 30.25 in 10.0 mi Calm Calm - N/A   Overcast
12:35 AM 33.8 °F - 33.1 °F 97% 30.25 in 10.0 mi Calm Calm - N/A   Mostly Cloudy
12:55 AM 33.1 °F - 32.5 °F 98% 30.24 in 10.0 mi Calm Calm - N/A   Overcast
1:15 AM 33.6 °F - 33.6 °F 100% 30.25 in 10.0 mi Calm Calm - N/A   Overcast
1:35 AM 34.7 °F - 34.2 °F 98% 30.24 in 10.0 mi Calm Calm - N/A   Overcast
1:55 AM 35.2 °F - 34.7 °F 98% 30.25 in 10.0 mi Calm Calm - N/A   Overcast
2:15 AM 36.1 °F - 35.2 °F 97% 30.24 in 10.0 mi Calm Calm - N/A   Overcast
2:35 AM 36.0 °F - 35.8 °F 99% 30.24 in 10.0 mi Calm Calm - N/A   Overcast
2:55 AM 36.1 °F - 35.6 °F 98% 30.24 in 10.0 mi Calm Calm - N/A   Overcast
3:15 AM 35.8 °F - 35.6 °F 99% 30.24 in 10.0 mi Calm Calm - N/A   Overcast
3:35 AM 36.0 °F - 35.6 °F 99% 30.24 in 10.0 mi Calm Calm - N/A   Overcast
3:55 AM 35.8 °F - 35.6 °F 99% 30.24 in 10.0 mi Calm Calm - N/A   Overcast
4:15 AM 36.0 °F - 36.0 °F 100% 30.24 in 10.0 mi Calm Calm - N/A   Overcast
4:55 AM 36.1 °F - 35.6 °F 98% 30.24 in 10.0 mi Calm Calm - N/A   Overcast
5:15 AM 35.8 °F - 35.8 °F 100% 30.24 in 10.0 mi Calm Calm - N/A   Overcast
5:35 AM 36.0 °F - 36.0 °F 100% 30.24 in 10.0 mi Calm Calm - N/A   Overcast
5:55 AM 35.4 °F - 35.4 °F 100% 30.24 in 10.0 mi Calm Calm - N/A   Overcast
6:15 AM 34.7 °F - 34.5 °F 99% 30.24 in 10.0 mi Calm Calm - N/A   Overcast
6:35 AM 34.3 °F - 34.3 °F 100% 30.24 in 10.0 mi Calm Calm - N/A   Overcast
6:55 AM 34.2 °F - 34.2 °F 100% 30.24 in 10.0 mi Calm Calm - N/A   Overcast
7:15 AM 34.0 °F - 34.0 °F 100% 30.25 in 10.0 mi Calm Calm - N/A   Mostly Cloudy
7:35 AM 33.8 °F - 33.8 °F 100% 30.26 in 10.0 mi Calm Calm - N/A   Mostly Cloudy
7:55 AM 35.6 °F - 35.6 °F 100% 30.26 in 10.0 mi Calm Calm - N/A   Mostly Cloudy
8:15 AM 37.2 °F - 37.0 °F 99% 30.26 in 10.0 mi Calm Calm - N/A   Scattered Clouds
8:35 AM 41.9 °F 40.0 °F 37.9 °F 86% 30.26 in 10.0 mi WSW 3.5 mph - N/A   Clear
8:55 AM 43.0 °F - 37.6 °F 81% 30.26 in 10.0 mi Calm Calm - N/A   Mostly Cloudy
9:15 AM 45.5 °F 43.2 °F 37.9 °F 75% 30.27 in 10.0 mi SW 4.6 mph - N/A   Overcast
9:35 AM 47.3 °F - 37.2 °F 68% 30.27 in 10.0 mi SW 4.6 mph - N/A   Overcast
9:55 AM 49.3 °F - 36.7 °F 62% 30.26 in 10.0 mi West 4.6 mph - N/A   Mostly Cloudy
10:15 AM 51.6 °F - 37.6 °F 59% 30.25 in 10.0 mi West 4.6 mph - N/A   Mostly Cloudy
10:35 AM 52.7 °F - 37.4 °F 56% 30.25 in 10.0 mi NNW 3.5 mph - N/A   Mostly Cloudy
10:55 AM 53.6 °F - 37.0 °F 53% 30.25 in 10.0 mi WNW 9.2 mph - N/A   Overcast
11:15 AM 53.6 °F - 36.3 °F 52% 30.24 in 10.0 mi NW 9.2 mph - N/A   Overcast
11:35 AM 54.0 °F - 36.0 °F 51% 30.24 in 10.0 mi NNW 4.6 mph - N/A   Mostly Cloudy
11:55 AM 54.9 °F - 37.0 °F 51% 30.23 in 10.0 mi NNW 9.2 mph 18.4 mph N/A   Mostly Cloudy
12:15 PM 55.4 °F - 35.4 °F 47% 30.23 in 10.0 mi WNW 6.9 mph - N/A   Mostly Cloudy
12:35 PM 55.0 °F - 35.1 °F 47% 30.22 in 10.0 mi NNW 4.6 mph - N/A   Overcast
12:55 PM 55.4 °F - 35.8 °F 48% 30.21 in 10.0 mi WNW 8.1 mph - N/A   Overcast
1:15 PM 54.9 °F - 35.4 °F 48% 30.21 in 10.0 mi NNW 5.8 mph - N/A   Overcast
1:35 PM 54.5 °F - 34.3 °F 47% 30.20 in 10.0 mi NW 6.9 mph - N/A   Overcast
1:55 PM 54.5 °F - 34.9 °F 48% 30.20 in 10.0 mi NW 8.1 mph - N/A   Overcast
2:15 PM 55.4 °F - 35.1 °F 46% 30.20 in 10.0 mi WNW 8.1 mph - N/A   Overcast
2:35 PM 55.6 °F - 35.6 °F 47% 30.19 in 10.0 mi NNW 9.2 mph - N/A   Overcast
2:55 PM 55.8 °F - 34.7 °F 45% 30.18 in 10.0 mi NW 5.8 mph - N/A   Overcast
3:15 PM 55.6 °F - 35.6 °F 47% 30.18 in 10.0 mi NW 5.8 mph - N/A   Overcast
3:35 PM 57.2 °F - 35.4 °F 44% 30.16 in 10.0 mi NW 5.8 mph - N/A   Overcast
3:55 PM 56.1 °F - 34.5 °F 44% 30.16 in 10.0 mi NW 10.4 mph - N/A   Overcast
4:15 PM 56.5 °F - 34.2 °F 43% 30.15 in 10.0 mi NNW 11.5 mph - N/A   Overcast
4:35 PM 57.4 °F - 34.3 °F 42% 30.15 in 10.0 mi WNW 9.2 mph - N/A   Overcast
4:55 PM 57.0 °F - 34.2 °F 42% 30.15 in 10.0 mi NW 6.9 mph - N/A   Mostly Cloudy
5:15 PM 56.3 °F - 33.4 °F 42% 30.15 in 10.0 mi NW 6.9 mph - N/A   Overcast
5:35 PM 57.0 °F - 33.1 °F 40% 30.15 in 10.0 mi NW 5.8 mph - N/A   Overcast
5:55 PM 56.5 °F - 33.8 °F 42% 30.15 in 10.0 mi NW 3.5 mph - N/A   Mostly Cloudy
6:15 PM 55.8 °F - 34.9 °F 45% 30.15 in 10.0 mi Calm Calm - N/A   Mostly Cloudy
6:35 PM 55.2 °F - 34.3 °F 45% 30.15 in 10.0 mi Calm Calm - N/A   Overcast
6:55 PM 54.0 °F - 34.3 °F 47% 30.15 in 10.0 mi Calm Calm - N/A   Mostly Cloudy
7:15 PM 51.3 °F - 37.0 °F 58% 30.16 in 10.0 mi Calm Calm - N/A   Mostly Cloudy
7:35 PM 48.4 °F - 35.4 °F 61% 30.16 in 10.0 mi Calm Calm - N/A   Scattered Clouds
7:55 PM 46.4 °F - 35.1 °F 65% 30.16 in 10.0 mi Calm Calm - N/A   Overcast
8:15 PM 46.0 °F - 35.4 °F 66% 30.16 in 10.0 mi Calm Calm - N/A   Overcast
8:35 PM 45.5 °F - 35.1 °F 67% 30.18 in 10.0 mi Calm Calm - N/A   Mostly Cloudy
8:55 PM 41.2 °F - 35.2 °F 79% 30.18 in 10.0 mi Calm Calm - N/A   Scattered Clouds
9:15 PM 39.2 °F - 36.0 °F 88% 30.18 in 10.0 mi Calm Calm - N/A   Scattered Clouds
9:35 PM 40.3 °F - 34.0 °F 78% 30.19 in 10.0 mi Calm Calm - N/A   Mostly Cloudy
9:55 PM 37.9 °F - 34.7 °F 88% 30.19 in 10.0 mi Calm Calm - N/A   Mostly Cloudy
10:15 PM 37.9 °F - 34.9 °F 89% 30.20 in 10.0 mi Calm Calm - N/A   Scattered Clouds
10:35 PM 34.0 °F - 32.9 °F 96% 30.20 in 10.0 mi Calm Calm - N/A   Scattered Clouds
10:55 PM 35.8 °F - 34.3 °F 94% 30.20 in 10.0 mi Calm Calm - N/A   Scattered Clouds
11:15 PM 34.2 °F - 32.7 °F 94% 30.20 in 10.0 mi Calm Calm - N/A   Clear
11:35 PM 32.5 °F - 32.2 °F 99% 30.20 in 10.0 mi Calm Calm - N/A   Clear
11:55 PM 33.6 °F - 33.4 °F 99% 30.20 in 10.0 mi Calm Calm - N/A   Clear